DW1684 Weather Reports


time (UTC)temp
C
wind
direction
speed
KPH
gust
KPH
rain 1hr
cm
rain 24hr
cm
rain mn
cm
humidity
%
barometer
mb
20260903025827 27 262 0.0 3.2 0.00 0.00 0.00 86 1015.0
20260903025322 27 6 0.0 3.2 0.00 0.00 0.00 86 1015.1
20260903024816 27 301 1.6 3.2 0.00 0.00 0.00 86 1015.1
20260903024350 27 272 1.6 3.2 0.00 0.00 0.00 86 1015.1
20260903023842 27 317 0.0 8.0 0.00 0.00 0.00 86 1015.1
20260903023352 27 263 1.6 8.0 0.00 0.00 0.00 86 1015.1
20260903022825 27 272 3.2 4.8 0.00 0.00 0.00 86 1015.1
20260903022319 28 295 0.0 3.2 0.00 0.00 0.00 86 1015.1
20260903021833 28 286 0.0 4.8 0.00 0.00 0.00 86 1015.2
20260903021324 28 213 0.0 4.8 0.00 0.00 0.00 85 1015.2
20260903020819 28 241 1.6 6.4 0.00 0.00 0.00 85 1015.2
20260903020336 28 301 3.2 6.4 0.00 0.00 0.00 85 1015.1
20260903015827 28 282 1.6 6.4 0.00 0.00 0.00 85 1015.1
20260903015318 28 137 0.0 4.8 0.00 0.00 0.00 85 1015.1
20260903014849 28 276 0.0 6.4 0.00 0.00 0.00 85 1015.0
20260903014322 28 297 1.6 6.4 0.00 0.00 0.00 85 1014.9
20260903013817 28 263 0.0 6.4 0.00 0.00 0.00 85 1014.8
20260903013328 28 194 3.2 6.4 0.00 0.00 0.00 85 1014.9
20260903012822 28 268 1.6 4.8 0.00 0.00 0.00 85 1014.8
20260903012320 28 259 0.0 3.2 0.00 0.00 0.00 85 1014.8
20260903011831 28 265 1.6 3.2 0.00 0.00 0.00 85 1014.7
20260903011325 28 6 1.6 3.2 0.00 0.00 0.00 85 1014.7
20260903010840 28 91 0.0 3.2 0.00 0.00 0.00 85 1014.6
20260903010316 28 94 0.0 3.2 0.00 0.00 0.00 84 1014.5
20260903005830 28 177 0.0 4.8 0.00 0.00 0.00 84 1014.5
20260903005321 28 141 1.6 4.8 0.00 0.00 0.00 84 1014.5
20260903004831 29 142 1.6 3.2 0.00 0.00 0.00 83 1014.5
20260903004327 29 162 0.0 1.6 0.00 0.00 0.00 83 1014.4
20260903003840 29 141 0.0 1.6 0.00 0.00 0.00 82 1014.3
20260903003332 30 262 0.0 1.6 0.00 0.00 0.00 81 1014.3
20260903002823 30 257 0.0 1.6 0.00 0.00 0.00 81 1014.4
20260903002335 30 183 0.0 3.2 0.00 0.00 0.00 80 1014.3
20260903001826 30 116 0.0 8.0 0.00 0.00 0.00 80 1014.4
20260903001316 30 68 1.6 8.0 0.00 0.00 0.00 79 1014.4
20260903000828 30 313 0.0 8.0 0.00 0.00 0.00 79 1014.4
20260903000342 30 266 1.6 6.4 0.00 0.00 0.00 78 1014.5
20260902235832 30 172 1.6 6.4 0.00 0.00 0.00 78 1014.5
20260902235346 31 292 0.0 6.4 0.00 0.00 0.00 77 1014.4
20260902234817 31 197 3.2 8.0 0.00 0.00 0.00 77 1014.4
20260902234327 31 264 1.6 8.0 0.00 0.00 0.00 76 1014.4
20260902233844 31 266 1.6 8.0 0.00 0.00 0.00 76 1014.4
20260902233354 32 168 1.6 8.0 0.00 0.00 0.00 75 1014.5
20260902232824 32 274 1.6 6.4 0.00 0.00 0.00 75 1014.5
20260902232335 32 275 1.6 8.0 0.00 0.00 0.00 74 1014.4
20260902231846 32 112 1.6 9.7 0.00 0.00 0.00 74 1014.5
20260902231339 32 335 1.6 9.7 0.00 0.00 0.00 73 1014.5
20260902230830 32 254 3.2 8.0 0.00 0.00 0.00 72 1014.5
20260902230320 32 228 3.2 8.0 0.00 0.00 0.00 72 1014.6
20260902225815 33 271 3.2 8.0 0.00 0.00 0.00 71 1014.6
20260902225330 33 73 1.6 6.4 0.00 0.00 0.00 72 1014.6
20260902224820 33 289 1.6 6.4 0.00 0.00 0.00 72 1014.7
20260902224332 33 53 1.6 9.7 0.00 0.00 0.00 72 1014.6
20260902223824 33 184 1.6 9.7 0.00 0.00 0.00 71 1014.6
20260902223318 33 268 3.2 6.4 0.00 0.00 0.00 71 1014.7
20260902222832 33 274 1.6 6.4 0.00 0.00 0.00 71 1014.7
20260902222326 33 162 3.2 6.4 0.00 0.00 0.00 70 1014.7
20260902221820 33 172 1.6 6.4 0.00 0.00 0.00 70 1014.7
20260902221332 33 294 1.6 8.0 0.00 0.00 0.00 70 1014.7
20260902220824 33 135 1.6 9.7 0.00 0.00 0.00 69 1014.6
20260902220334 33 158 3.2 9.7 0.00 0.00 0.00 69 1014.6
20260902215825 33 244 4.8 8.0 0.00 0.00 0.00 68 1014.7
20260902215337 33 273 3.2 8.0 0.00 0.00 0.00 69 1014.8
20260902214829 33 268 4.8 11.3 0.00 0.00 0.00 68 1014.8
20260902214321 33 323 6.4 12.9 0.00 0.00 0.00 69 1014.8
20260902213819 33 255 6.4 12.9 0.00 0.00 0.00 68 1014.8
20260902213335 33 253 4.8 11.3 0.00 0.00 0.00 69 1014.8
20260902212826 33 235 6.4 11.3 0.00 0.00 0.00 70 1014.8
20260902212338 33 266 3.2 9.7 0.00 0.00 0.00 70 1014.8
20260902211828 33 256 3.2 11.3 0.00 0.00 0.00 70 1014.8
20260902211322 33 262 6.4 11.3 0.00 0.00 0.00 69 1014.8
20260902210838 33 318 6.4 9.7 0.00 0.00 0.00 69 1014.8
20260902210327 33 291 4.8 14.5 0.00 0.00 0.00 69 1014.9
20260902205822 33 254 6.4 14.5 0.00 0.00 0.00 68 1014.9
20260902205319 33 256 4.8 14.5 0.00 0.00 0.00 68 1015.0
20260902204830 33 284 4.8 11.3 0.00 0.00 0.00 69 1014.9
20260902204325 33 266 4.8 9.7 0.00 0.00 0.00 68 1015.0
20260902203819 33 298 1.6 8.0 0.00 0.00 0.00 71 1015.0
20260902203336 33 277 4.8 11.3 0.00 0.00 0.00 69 1015.0
20260902202826 33 320 6.4 11.3 0.00 0.00 0.00 68 1015.1
20260902202317 33 283 4.8 14.5 0.00 0.00 0.00 68 1015.1
20260902201828 33 296 6.4 14.5 0.00 0.00 0.00 67 1015.1
20260902201323 33 279 4.8 11.3 0.00 0.00 0.00 67 1015.2
20260902200836 33 279 4.8 9.7 0.00 0.00 0.00 70 1015.3
20260902200326 33 250 4.8 9.7 0.00 0.00 0.00 69 1015.3
20260902195817 33 222 4.8 9.7 0.00 0.00 0.00 68 1015.4
20260902195328 33 256 4.8 11.3 0.00 0.00 0.00 68 1015.4
20260902194819 33 260 6.4 11.3 0.00 0.00 0.00 68 1015.5
20260902194331 33 313 4.8 8.0 0.00 0.00 0.00 68 1015.4
20260902193826 33 151 4.8 12.9 0.00 0.00 0.00 70 1015.5
20260902193356 33 293 1.6 12.9 0.00 0.00 0.00 74 1015.6
20260902192830 33 251 6.4 12.9 0.00 0.00 0.00 69 1015.6
20260902192324 33 258 6.4 12.9 0.00 0.00 0.00 69 1015.6
20260902191818 33 291 3.2 12.9 0.00 0.00 0.00 70 1015.7
20260902191332 33 233 6.4 11.3 0.00 0.00 0.00 70 1015.7
20260902190846 33 255 6.4 9.7 0.00 0.00 0.00 68 1015.7
20260902190318 33 312 1.6 9.7 0.00 0.00 0.00 72 1015.7
20260902185832 33 43 3.2 9.7 0.00 0.00 0.00 74 1015.8
20260902185323 33 154 3.2 12.9 0.00 0.00 0.00 74 1015.8
20260902184818 33 164 4.8 12.9 0.00 0.00 0.00 71 1015.8
20260902184331 33 148 4.8 11.3 0.00 0.00 0.00 70 1015.8
20260902183824 33 241 4.8 8.0 0.00 0.00 0.00 71 1015.8
20260902183334 33 114 3.2 12.9 0.00 0.00 0.00 73 1015.8
20260902182845 33 136 4.8 12.9 0.00 0.00 0.00 72 1015.8
20260902182318 33 267 3.2 11.3 0.00 0.00 0.00 71 1015.7
20260902181832 33 227 3.2 17.7 0.00 0.00 0.00 72 1015.8
20260902181323 33 54 3.2 17.7 0.00 0.00 0.00 75 1015.7
20260902180836 33 323 1.6 8.0 0.00 0.00 0.00 73 1015.8
20260902180326 33 342 3.2 8.0 0.00 0.00 0.00 74 1015.8
20260902175821 33 141 1.6 8.0 0.00 0.00 0.00 73 1015.9
20260902175335 33 272 3.2 6.4 0.00 0.00 0.00 71 1015.9
20260902174826 33 112 3.2 6.4 0.00 0.00 0.00 74 1015.9
20260902174337 33 138 1.6 6.4 0.00 0.00 0.00 72 1016.0
20260902173828 33 210 3.2 6.4 0.00 0.00 0.00 75 1016.1
20260902173324 33 210 3.2 8.0 0.00 0.00 0.00 72 1016.1
20260902172817 32 189 1.6 8.0 0.00 0.00 0.00 73 1016.2
20260902172328 32 143 3.2 6.4 0.00 0.00 0.00 73 1016.3
20260902171819 32 238 1.6 6.4 0.00 0.00 0.00 72 1016.3
20260902171334 32 288 4.8 6.4 0.00 0.00 0.00 70 1016.3
20260902170827 32 138 1.6 6.4 0.00 0.00 0.00 73 1016.3
20260902170317 32 129 3.2 4.8 0.00 0.00 0.00 74 1016.4
20260902165828 32 208 1.6 6.4 0.00 0.00 0.00 76 1016.4
20260902165319 32 311 1.6 6.4 0.00 0.00 0.00 73 1016.4
20260902164829 32 42 1.6 6.4 0.00 0.00 0.00 75 1016.4
20260902164320 32 237 1.6 6.4 0.00 0.00 0.00 75 1016.4
20260902163813 32 240 1.6 4.8 0.00 0.00 0.00 74 1016.4
20260902163329 32 136 3.2 4.8 0.00 0.00 0.00 77 1016.5
20260902162824 31 257 3.2 6.4 0.00 0.00 0.00 73 1016.5
20260902162318 31 265 3.2 8.0 0.00 0.00 0.00 72 1016.6
20260902161832 31 269 3.2 8.0 0.00 0.00 0.00 75 1016.7
20260902161323 31 246 1.6 8.0 0.00 0.00 0.00 75 1016.7
20260902160836 31 256 3.2 9.7 0.00 0.00 0.00 75 1016.7
20260902160326 31 303 3.2 9.7 0.00 0.00 0.00 76 1016.8
20260902155817 30 305 6.4 11.3 0.00 0.00 0.00 74 1016.8
20260902155328 30 298 4.8 11.3 0.00 0.00 0.00 76 1016.8
20260902154823 30 253 4.8 11.3 0.00 0.00 0.00 74 1016.9
20260902154334 30 258 3.2 9.7 0.00 0.00 0.00 76 1016.9
20260902153827 30 299 4.8 9.7 0.00 0.00 0.00 74 1016.9
20260902153317 30 324 6.4 9.7 0.00 0.00 0.00 75 1016.9
20260902152828 30 255 4.8 9.7 0.00 0.00 0.00 74 1016.9
20260902152339 30 278 4.8 9.7 0.00 0.00 0.00 75 1016.8
20260902151853 30 260 4.8 9.7 0.00 0.00 0.00 76 1016.8
20260902151323 30 156 4.8 9.7 0.00 0.00 0.00 77 1016.8
20260902150815 30 305 3.2 11.3 0.00 0.00 0.00 78 1016.9
20260902150316 30 299 4.8 11.3 0.00 0.03 0.00 76 1016.9
20260902145827 30 253 3.2 8.0 0.00 0.03 0.00 77 1016.8
20260902145321 29 284 4.8 9.7 0.00 0.03 0.00 77 1016.8
20260902144815 29 287 4.8 12.9 0.00 0.03 0.00 77 1016.8
20260902144329 29 264 6.4 12.9 0.00 0.03 0.00 77 1016.8
20260902143821 29 262 4.8 11.3 0.00 0.03 0.00 78 1016.8
20260902143335 28 305 4.8 11.3 0.00 0.03 0.00 78 1016.8
20260902142826 28 301 3.2 9.7 0.00 0.03 0.00 79 1016.8
20260902142341 28 262 4.8 11.3 0.00 0.03 0.00 77 1016.8
20260902141831 28 312 4.8 11.3 0.00 0.03 0.00 78 1016.7
20260902141322 28 261 3.2 8.0 0.00 0.03 0.00 78 1016.7
20260902140855 28 268 4.8 11.3 0.00 0.03 0.00 78 1016.7
20260902140325 28 265 6.4 11.3 0.00 0.08 0.00 78 1016.7
20260902135816 28 312 4.8 8.0 0.00 0.08 0.00 79 1016.7
20260902135327 28 302 1.6 9.7 0.00 0.08 0.00 79 1016.6
20260902134821 27 271 3.2 9.7 0.00 0.08 0.00 79 1016.7
20260902134315 27 251 3.2 9.7 0.00 0.08 0.00 80 1016.7
20260902133830 27 264 3.2 9.7 0.00 0.08 0.00 80 1016.7
20260902133324 27 322 3.2 9.7 0.00 0.08 0.00 80 1016.7
20260902132818 27 316 3.2 11.3 0.00 0.08 0.00 81 1016.7
20260902132332 27 294 6.4 11.3 0.00 0.08 0.00 81 1016.8
20260902131823 26 286 4.8 9.7 0.00 0.08 0.00 82 1016.8
20260902131334 26 278 4.8 9.7 0.00 0.08 0.00 83 1016.9
20260902130827 26 278 3.2 12.9 0.00 0.08 0.00 84 1017.0
20260902130317 26 273 3.2 12.9 0.00 0.23 0.00 84 1017.0
20260902125828 26 249 3.2 9.7 0.00 0.23 0.00 86 1017.0
20260902125323 25 268 3.2 9.7 0.00 0.23 0.00 87 1017.0
20260902124834 25 274 4.8 9.7 0.00 0.23 0.00 88 1017.1
20260902124325 25 328 1.6 6.4 0.00 0.23 0.00 89 1017.0
20260902123817 24 299 1.6 6.4 0.00 0.23 0.00 91 1017.0
20260902123328 24 259 0.0 4.8 0.00 0.23 0.00 93 1017.0
20260902122819 23 312 1.6 6.4 0.00 0.23 0.00 94 1017.2
20260902122330 23 276 1.6 6.4 0.00 0.23 0.00 96 1017.2
20260902121824 23 287 0.0 3.2 0.00 0.23 0.00 97 1017.1
20260902121322 23 326 0.0 1.6 0.00 0.23 0.00 97 1017.2
20260902120834 22 349 0.0 1.6 0.00 0.23 0.00 98 1017.2
20260902120325 22 111 0.0 1.6 0.00 0.33 0.00 98 1017.2
20260902115816 22 111 0.0 1.6 0.00 0.33 0.00 98 1017.1
20260902115327 22 111 0.0 1.6 0.00 0.33 0.00 98 1017.1
20260902114821 22 111 0.0 1.6 0.00 0.33 0.00 98 1017.1
20260902114335 22 111 0.0 1.6 0.00 0.33 0.00 98 1017.0
20260902113827 22 90 0.0 0.0 0.00 0.33 0.00 98 1017.0
20260902113328 22 90 0.0 1.6 0.00 0.33 0.00 98 1016.9
20260902112819 22 90 0.0 1.6 0.00 0.33 0.00 98 1016.9
20260902112330 22 90 0.0 1.6 0.00 0.33 0.00 98 1016.9
20260902111824 22 90 0.0 0.0 0.00 0.33 0.00 98 1016.8
20260902111338 22 90 0.0 0.0 0.00 0.33 0.00 98 1016.8
20260902110829 22 104 0.0 3.2 0.00 0.33 0.00 97 1016.8
20260902110320 22 104 0.0 3.2 0.00 0.33 0.00 97 1016.7
20260902105831 22 339 0.0 0.0 0.00 0.33 0.00 97 1016.7
20260902105322 22 339 0.0 0.0 0.00 0.33 0.00 97 1016.7
20260902104817 22 339 0.0 0.0 0.00 0.33 0.00 97 1016.7
20260902104328 22 339 0.0 0.0 0.00 0.33 0.00 96 1016.7
20260902103820 22 339 0.0 0.0 0.00 0.33 0.00 96 1016.7
20260902103351 22 339 0.0 1.6 0.00 0.33 0.00 96 1016.6
20260902102824 22 339 0.0 1.6 0.00 0.33 0.00 96 1016.5
20260902102318 22 339 0.0 0.0 0.00 0.33 0.00 96 1016.5
20260902101832 22 339 0.0 0.0 0.00 0.33 0.00 96 1016.5
20260902101323 22 339 0.0 0.0 0.00 0.33 0.00 96 1016.4
20260902100819 22 339 0.0 0.0 0.00 0.33 0.00 96 1016.4
20260902100330 22 339 0.0 0.0 0.00 0.33 0.00 96 1016.3
20260902095824 22 339 0.0 1.6 0.00 0.33 0.00 96 1016.4
20260902095338 23 339 0.0 1.6 0.00 0.33 0.00 96 1016.3
20260902094849 23 339 0.0 0.0 0.00 0.33 0.00 96 1016.4
20260902094322 23 339 0.0 0.0 0.00 0.33 0.00 96 1016.3
20260902093834 23 339 0.0 0.0 0.00 0.33 0.00 96 1016.2
20260902093325 23 339 0.0 0.0 0.00 0.33 0.00 96 1016.2
20260902092856 23 339 0.0 0.0 0.00 0.33 0.00 96 1016.2
20260902092326 23 339 0.0 0.0 0.00 0.33 0.00 96 1016.2
20260902091821 23 339 0.0 0.0 0.00 0.33 0.00 96 1016.2
20260902091335 23 339 0.0 0.0 0.00 0.33 0.00 95 1016.2
20260902090827 23 339 0.0 0.0 0.00 0.33 0.00 94 1016.2
20260902090321 23 339 0.0 0.0 0.00 0.33 0.00 94 1016.3
20260902085835 23 339 0.0 0.0 0.00 0.33 0.00 94 1016.1
20260902085326 23 339 0.0 0.0 0.00 0.33 0.00 94 1016.2
20260902084817 23 339 0.0 0.0 0.00 0.33 0.00 94 1016.1
20260902084328 23 339 0.0 0.0 0.00 0.33 0.00 94 1016.1
20260902083824 23 339 0.0 0.0 0.00 0.33 0.00 94 1016.1
20260902083321 23 339 0.0 0.0 0.00 0.33 0.00 94 1016.1
20260902082835 23 334 0.0 0.0 0.00 0.33 0.00 94 1016.2
20260902082326 23 334 0.0 0.0 0.00 0.33 0.00 93 1016.2
20260902081817 23 334 0.0 0.0 0.00 0.33 0.00 93 1016.3
20260902081328 24 334 0.0 0.0 0.00 0.33 0.00 93 1016.3
20260902080820 24 334 0.0 1.6 0.00 0.33 0.00 94 1016.3
20260902080331 24 334 0.0 1.6 0.00 0.33 0.00 94 1016.3
20260902075842 24 335 0.0 1.6 0.00 0.33 0.00 93 1016.4
20260902075319 24 294 0.0 3.2 0.00 0.33 0.00 93 1016.3
20260902074830 24 304 0.0 3.2 0.00 0.33 0.00 94 1016.5
20260902074324 24 316 0.0 0.0 0.00 0.33 0.00 94 1016.4
20260902073818 24 318 0.0 0.0 0.00 0.33 0.00 94 1016.3
20260902073315 24 318 0.0 0.0 0.00 0.33 0.00 93 1016.2
20260902072829 24 318 0.0 0.0 0.00 0.33 0.00 94 1016.2
20260902072320 24 318 0.0 0.0 0.00 0.33 0.00 94 1016.2
20260902071815 24 318 0.0 1.6 0.00 0.33 0.00 94 1016.1
20260902071329 24 318 0.0 1.6 0.00 0.33 0.00 94 1016.1
20260902070821 24 277 0.0 1.6 0.00 0.33 0.00 94 1016.1
20260902070318 24 292 0.0 1.6 0.00 0.33 0.00 94 1016.1
20260902065832 24 323 0.0 1.6 0.00 0.33 0.00 93 1016.1
20260902065323 24 274 0.0 0.0 0.00 0.33 0.00 93 1016.1
20260902064834 25 274 0.0 0.0 0.00 0.33 0.00 92 1016.1
20260902064325 25 274 0.0 0.0 0.00 0.33 0.00 92 1016.1
20260902063821 25 274 0.0 0.0 0.00 0.33 0.00 92 1016.0
20260902063338 25 274 0.0 0.0 0.00 0.33 0.00 92 1016.0
20260902062848 25 274 0.0 0.0 0.00 0.33 0.00 91 1016.0
20260902062321 25 274 0.0 0.0 0.00 0.33 0.00 91 1016.0
20260902061835 25 274 0.0 0.0 0.00 0.33 0.00 91 1016.1
20260902061326 25 274 0.0 0.0 0.00 0.33 0.00 90 1016.1
20260902060818 26 274 0.0 1.6 0.00 0.33 0.00 90 1016.1
20260902060315 26 274 0.0 1.6 0.00 0.33 0.00 90 1016.1
20260902055829 26 303 0.0 0.0 0.00 0.33 0.00 90 1016.1
20260902055324 26 303 0.0 1.6 0.00 0.33 0.00 90 1016.2
20260902054818 26 280 0.0 1.6 0.00 0.33 0.00 89 1016.2
20260902054332 26 280 0.0 1.6 0.00 0.33 0.00 89 1016.2
20260902053824 26 318 0.0 1.6 0.00 0.33 0.00 89 1016.2
20260902053321 26 318 0.0 4.8 0.00 0.33 0.00 89 1016.2
20260902052835 26 318 0.0 4.8 0.00 0.33 0.00 89 1016.3
20260902052326 26 266 0.0 3.2 0.00 0.33 0.00 89 1016.3
20260902051817 26 253 1.6 3.2 0.00 0.33 0.00 89 1016.2
20260902051348 26 310 0.0 3.2 0.00 0.33 0.00 89 1016.2
20260902050826 26 302 0.0 3.2 0.00 0.33 0.00 89 1016.2
20260902050317 26 262 1.6 3.2 0.00 0.33 0.00 89 1016.2
20260902045828 26 158 0.0 3.2 0.00 0.33 0.00 89 1016.2
20260902045339 26 301 0.0 3.2 0.00 0.33 0.00 89 1016.2
20260902044832 26 276 1.6 4.8 0.00 0.33 0.00 89 1016.2
20260902044323 26 304 0.0 4.8 0.00 0.33 0.00 89 1016.2
20260902043836 26 308 1.6 4.8 0.00 0.33 0.00 90 1016.2
20260902043329 26 263 1.6 4.8 0.00 0.33 0.00 90 1016.2
20260902042820 26 265 0.0 1.6 0.00 0.33 0.00 90 1016.1
20260902042315 27 356 0.0 1.6 0.00 0.33 0.00 90 1016.1
20260902041829 27 305 0.0 4.8 0.00 0.33 0.00 90 1016.2
20260902041320 27 194 0.0 6.4 0.00 0.33 0.00 90 1016.1
20260902040812 27 337 1.6 6.4 0.00 0.33 0.00 90 1016.1
20260902040329 26 202 0.0 3.2 0.00 0.33 0.33 90 1016.1
20260902035840 27 276 0.0 1.6 0.00 0.33 0.33 90 1016.1
20260902035330 27 233 0.0 4.8 0.00 0.33 0.33 90 1016.1
20260902034824 27 228 0.0 4.8 0.00 0.33 0.33 90 1016.1
20260902034322 27 246 0.0 3.2 0.00 0.33 0.33 90 1016.1
20260902033834 27 328 0.0 4.8 0.00 0.33 0.33 91 1016.1
20260902033324 27 318 1.6 4.8 0.00 0.33 0.33 91 1016.1
20260902032841 27 239 0.0 3.2 0.00 0.33 0.33 91 1016.1
20260902032331 26 281 0.0 1.6 0.00 0.33 0.33 91 1016.1
20260902031822 27 211 0.0 4.8 0.00 0.33 0.33 91 1016.1
20260902031333 26 229 1.6 4.8 0.00 0.33 0.33 92 1016.1
20260902030828 26 260 0.0 4.8 0.00 0.33 0.33 92 1016.0
20260902030319 26 264 1.6 4.8 0.00 0.33 0.33 92 1016.0